#timestamp,LO_Frequency,Hit,StdDev 
1457240415.3,286047007.6,N
1457240435.1,286047004.6,N
1457240455.8,286047006.3,N
1457240475.7,286047006.3,N
1457240495.5,286047010.2,N
1457240515.3,286047011.9,Y
1457240535.2,286047000.2,P
1457240555.9,286047000.4,N
1457240575.7,286046998.3,N
1457240595.6,286047000.4,N
1457240615.4,286046999.6,N
1457240635.2,286046997.8,N
1457240655.1,286046998.2,N
1457240656.0,286046998.2,N
1457240675.8,286046999.0,N
1457240695.6,286046998.4,N
1457240715.4,286046999.9,N
1457240735.3,286047000.8,N
1457240755.1,286047000.9,N
1457240775.8,286046995.4,N
1457240795.7,286046995.8,N
1457240815.5,286046993.5,N
1457240835.3,286046996.4,N
1457240855.2,286046996.1,N
1457240875.9,286046997.3,N
1457240895.7,286046995.8,N
1457240915.6,286046995.6,N
1457240935.4,286046998.2,N
1457240955.2,286046999.0,N
1457240975.0,286046994.9,N
1457240976.0,286046994.9,N
1457240995.8,286046994.0,N
1457241015.6,286046993.3,N
1457241035.4,286046994.7,N
1457241055.3,286046997.4,N
1457241075.1,286046997.7,N
1457241095.8,286046996.9,N
1457241115.7,286046999.3,N
1457241135.5,286046999.0,N
1457241155.3,286046999.4,N
1457241175.2,286046997.9,N
1457241195.9,286046995.5,N
1457241215.7,286046992.0,Y
1457241235.6,286046995.9,P
1457241255.4,286046994.1,P
1457241275.2,286046991.8,P
1457241295.1,286046995.8,N
1457241296.0,286046995.8,N
1457241315.8,286046995.3,N
1457241335.6,286046995.2,Y
1457241355.5,286047000.9,P
1457241375.3,286047000.0,N
1457241395.1,286046998.5,N
1457241415.9,286046997.8,N
1457241435.7,286046997.6,N
1457241455.5,286046997.3,N
1457241475.3,286046996.4,N
1457241495.2,286046994.7,Y
1457241515.0,286046996.8,P
1457241515.9,286046996.8,P
1457241535.8,286046994.5,P
1457241555.6,286046992.4,Y
1457241575.4,286046995.6,P
1457241595.3,286046996.0,P
1457241615.1,286046993.1,P
1457241616.0,286046993.1,Y
1457241635.8,286046996.6,P
1457241655.7,286046996.9,P
1457241675.5,286046994.4,P
1457241695.3,286046994.7,Y
1457241715.2,286046996.6,P
1457241735.9,286046995.1,P
1457241755.7,286046999.1,N
1457241775.6,286046995.1,Y
1457241795.4,286046997.0,P
1457241815.2,286046997.4,P
1457241835.1,286046995.4,P
1457241836.0,286046995.4,Y
1457241855.8,286046997.0,P
1457241875.6,286047000.5,N
1457241895.5,286046999.0,N
1457241915.3,286046999.1,N
1457241935.1,286046999.1,N
1457241955.9,286046999.0,N
1457241975.7,286046999.2,N
1457241995.5,286046997.9,N
1457242015.4,286046995.4,Y
1457242035.2,286046995.5,P
1457242055.0,286046993.3,P
1457242055.9,286046993.3,P
1457242075.8,286046992.5,Y
1457242095.6,286046993.3,P
1457242115.4,286046996.4,P
1457242135.3,286046991.7,P
1457242155.1,286046988.7,Y
1457242156.0,286046988.7,P
1457242175.8,286046993.5,N
1457242195.7,286046995.1,N
1457242215.5,286046994.7,N
1457242235.3,286046992.5,Y
1457242255.2,286046999.4,P
1457242275.9,286046998.2,N
1457242295.7,286047001.6,N
1457242315.6,286047001.7,N
1457242335.4,286047002.6,N
1457242355.2,286047001.3,N
1457242375.0,286047003.8,N
1457242376.0,286047003.8,N
1457242395.8,286047005.4,N
1457242415.6,286047007.4,N
1457242435.4,286047008.9,N
1457242455.3,286047010.6,N
1457242475.1,286047013.6,Y
1457242495.8,286047009.5,P
1457242515.7,286047011.4,P
1457242535.5,286047013.1,P
1457242555.4,286047013.0,Y
1457242575.2,286047003.1,P
1457242595.0,286047003.8,N
1457242595.9,286047003.8,N
1457242615.7,286047004.1,N
1457242635.6,286047006.6,N
1457242655.4,286047005.3,N
1457242675.2,286047004.6,N
1457242695.1,286047006.9,Y
1457242696.0,286047006.9,P
1457242715.8,286047002.3,N
1457242735.6,286047005.0,N
1457242755.5,286047004.9,N
1457242775.3,286047005.4,Y
1457242795.1,286046999.8,P
1457242815.9,286047002.8,N
1457242835.7,286047001.3,N
1457242855.5,286047003.5,N
1457242875.4,286047007.5,Y
1457242895.2,286047004.8,P
1457242915.0,286047008.8,P
1457242915.9,286047008.8,P
1457242935.8,286047007.0,N
1457242955.6,286047008.6,Y
1457242975.4,286046999.9,P
1457242995.3,286047005.7,N
1457243015.1,286047005.1,N
1457243035.8,286047007.0,N
1457243055.7,286047007.9,Y
1457243075.5,286047008.1,P
1457243095.3,286047009.6,P
1457243115.2,286047011.1,P
1457243135.0,286047010.0,Y
1457243135.9,286047010.0,P
1457243155.8,286047002.5,P
1457243175.6,286047004.5,N
1457243195.4,286047003.9,N
1457243215.2,286047001.4,N
1457243235.1,286046999.7,N
1457243236.0,286046999.7,N
1457243255.8,286047000.1,N
1457243275.6,286047000.0,N
1457243295.5,286046999.1,N
1457243315.3,286046997.6,N
1457243335.1,286046998.0,N
1457243355.9,286046997.1,N
1457243375.7,286046996.9,N
1457243395.5,286046998.2,N
1457243415.4,286046999.6,N
1457243435.2,286047000.6,N
1457243455.0,286046999.0,N
1457243455.9,286046999.0,N
1457243475.7,286046996.8,N
1457243495.6,286046999.6,N
1457243515.4,286047001.2,N
1457243535.2,286046998.7,N
1457243555.1,286047000.2,N
1457243556.0,286047000.2,N
1457243575.8,286046998.5,N
1457243595.6,286046997.0,N
1457243615.5,286046995.9,N
1457243635.3,286046994.3,N
1457243655.1,286046994.3,N
1457243675.9,286046993.7,N
1457243695.7,286046997.7,N
1457243715.5,286046995.4,N
1457243735.4,286046996.5,N
1457243755.2,286046999.6,N
1457243775.0,286046993.6,Y
1457243775.9,286046993.6,P
1457243795.8,286046993.6,N
1457243815.6,286046995.5,N
1457243835.4,286046997.2,N
1457243855.2,286046996.8,N
1457243875.1,286046995.2,N
1457243876.0,286046995.2,N
1457243895.8,286046995.2,Y
1457243915.7,286047000.4,P
1457243935.5,286047000.4,N
1457243955.3,286046998.1,N
1457243975.1,286046996.7,N
1457243995.9,286046997.3,N
